Lapse_Rate
9.4 8.0 6.2 6.5 6.2 6.1 6.0 5.9 5.5 5.4 5.7 5.8 6.1 6.4 6.4 6.4 6.6 6.7 6.7 6.7 6.7 6.2 5.8 6.2 6.8 6.8 7.1 6.9 6.5 5.7 6.0 6.1 6.2 6.1 5.9 6.0 6.1 6.2 6.9 7.3 7.9 6.8 6.4
9.8 7.6 6.0 6.2 6.4 6.4 6.2 6.0 5.7 5.6 5.9 6.0 6.0 6.3 6.3 6.3 6.5 6.3 6.4 6.4 6.1 5.9 5.9 5.7 6.2 6.4 6.8 6.6 6.1 5.5 5.5 6.0 5.9 5.7 5.8 5.9 5.9 6.2 6.1 7.5 7.6 6.3 6.2
9.8 9.5 8.0 6.3 6.5 6.6 6.5 6.5 6.1 6.0 5.9 6.0 6.0 6.0 6.0 5.9 5.9 5.7 5.7 6.0 6.1 6.4 6.1 5.8 5.7 5.8 5.7 5.7 5.7 5.6 5.3 5.5 5.6 6.2 6.6 9.3 7.4 6.5 6.5 6.1 5.6 5.8 5.9
9.5 8.3 7.4 6.3 6.7 6.8 6.7 6.7 6.5 6.2 6.2 6.2 6.3 6.2 6.1 5.9 5.8 5.9 6.0 6.4 6.8 6.4 6.1 5.9 5.7 5.6 5.7 5.5 5.5 5.5 5.0 4.6 5.2 6.4 8.4 9.6 9.2 6.3 6.7 6.3 5.9 5.8 5.7
9.5 8.4 6.7 6.3 6.5 6.7 6.7 6.8 6.7 6.6 6.5 6.4 6.4 6.3 6.4 6.4 6.3 6.3 6.3 6.3 6.7 6.5 6.0 5.9 5.7 5.5 5.7 5.9 5.7 5.5 5.2 5.0 5.7 7.3 9.7 8.0 8.6 7.0 6.6 6.3 5.9 5.9 6.1
9.6 9.6 6.6 6.4 6.5 6.6 6.6 6.4 6.3 6.2 6.2 6.1 6.2 6.3 6.4 6.5 6.5 6.4 6.3 6.1 6.1 6.2 6.2 5.9 5.9 5.6 5.5 5.9 6.0 5.8 5.3 5.3 6.2 9.7 9.3 7.6 6.9 7.0 6.6 6.6 6.0 6.0 6.3
9.8 9.6 8.2 6.1 6.0 6.2 6.2 6.0 6.1 6.1 6.0 6.0 6.1 6.3 6.4 6.5 6.6 6.5 6.2 6.1 6.1 6.1 6.2 6.2 6.0 6.0 5.7 5.9 6.2 6.0 5.5 5.4 6.9 9.7 9.6 8.7 6.3 6.2 7.0 6.5 6.1 6.4 6.6
9.0 9.0 9.3 8.5 6.7 5.9 5.3 5.0 5.2 5.4 5.4 5.6 5.6 5.8 5.9 6.0 6.2 6.3 6.2 6.2 6.2 6.1 6.0 6.1 6.3 6.2 5.9 5.9 6.2 6.0 5.6 5.6 7.5 9.7 9.7 8.9 6.1 5.8 6.8 6.3 6.0 6.9 6.8
6.0 6.1 6.3 7.9 8.8 8.1 6.1 4.9 4.5 4.6 4.7 5.0 5.0 5.0 5.0 5.3 5.9 6.2 6.2 6.1 6.1 6.3 6.3 6.1 6.1 6.3 6.2 5.9 5.9 5.6 5.7 5.8 6.7 9.6 9.6 9.5 6.3 6.0 6.4 6.1 6.0 6.5 6.3
4.7 4.3 4.2 4.9 5.7 6.9 8.6 6.3 5.6 5.1 5.0 4.9 4.8 4.6 4.8 5.4 6.1 6.0 6.6 6.4 6.1 6.0 6.1 6.2 6.2 6.1 6.1 6.0 5.3 5.0 5.2 5.6 6.8 9.6 9.5 7.9 6.2 6.3 6.2 6.0 6.0 6.7 6.5
3.9 3.3 2.8 3.2 3.9 5.0 7.0 8.1 8.4 6.8 6.9 7.0 6.8 6.4 6.9 9.0 9.3 8.9 7.4 6.0 5.3 5.5 6.1 6.2 6.2 6.2 5.9 5.7 5.3 4.7 4.5 7.1 9.5 9.7 9.6 6.9 6.1 6.2 5.8 6.0 6.1 6.6 6.9
2.8 2.8 2.4 2.5 2.7 3.6 6.1 6.9 8.3 9.6 9.6 9.7 9.7 9.7 9.7 9.7 9.4 7.9 7.2 6.0 5.6 5.7 6.0 5.9 6.0 6.3 5.8 8.0 7.6 5.0 6.0 8.2 9.7 9.7 9.2 6.6 6.0 6.1 5.6 6.2 6.0 6.4 6.7
3.1 2.8 2.4 2.0 2.5 3.2 4.0 6.0 9.2 9.6 9.6 9.6 9.7 9.6 9.7 9.7 9.7 9.6 9.7 9.4 9.3 7.3 8.7 7.7 7.6 7.2 8.6 8.2 7.7 9.5 9.3 9.6 9.7 9.6 8.6 6.9 5.7 6.1 5.6 5.9 5.7 6.1 6.6
3.2 2.4 2.4 1.8 2.2 2.8 3.8 4.9 6.7 8.2 8.1 9.6 8.6 9.3 9.5 9.7 9.7 9.7 9.7 9.7 9.7 9.6 9.7 8.8 7.9 8.0 7.8 7.7 7.7 7.8 9.7 9.6 9.0 9.1 8.9 6.7 5.4 5.5 5.9 5.6 5.3 5.4 6.5
4.0 3.8 3.5 3.0 2.7 3.1 3.9 4.3 6.9 8.0 8.3 8.1 8.9 8.4 7.5 8.8 9.7 9.7 9.7 9.7 9.7 9.6 9.7 9.7 9.4 9.0 8.6 8.6 8.3 7.8 7.7 9.7 9.6 8.3 7.1 6.0 5.2 4.8 6.0 6.7 6.6 5.9 7.0
5.1 4.4 4.4 4.0 3.6 4.1 4.3 4.6 4.3 4.4 7.3 9.0 9.2 8.7 7.4 7.7 8.5 9.5 9.6 9.7 9.7 9.7 9.7 9.6 9.7 9.5 8.2 7.9 8.3 8.4 8.4 8.4 9.1 9.6 9.1 6.7 5.4 4.8 4.8 6.1 6.8 6.9 7.0
5.8 5.2 4.3 4.2 3.9 4.1 4.3 5.7 5.7 5.9 4.4 4.8 5.7 6.8 5.3 6.8 6.8 7.5 9.3 9.7 9.7 9.6 9.6 9.6 9.5 8.4 7.9 7.7 7.1 7.7 8.0 8.1 8.0 7.5 9.6 9.5 7.8 5.5 4.7 5.0 6.1 6.6 6.7
5.9 5.0 4.6 4.3 3.8 4.1 4.6 5.6 7.0 7.2 8.0 7.4 7.1 7.0 5.7 5.7 5.3 5.6 8.9 9.6 9.6 9.3 9.6 9.5 9.6 7.6 7.3 6.4 5.5 5.2 5.8 6.9 7.3 7.5 7.2 8.7 9.2 8.4 5.4 4.8 4.8 6.0 6.5
7.2 5.8 4.6 4.4 4.1 4.1 4.5 5.1 5.8 6.4 7.5 8.3 6.7 6.1 5.8 6.3 6.1 5.7 6.2 8.9 9.3 9.0 9.6 9.6 9.5 9.5 9.3 9.1 8.3 7.5 6.3 5.8 6.2 6.2 6.5 7.2 7.7 9.1 8.6 6.7 5.6 5.4 5.9
6.9 6.6 5.8 5.3 4.1 4.0 4.3 4.6 5.0 5.8 7.2 6.9 5.8 5.4 5.4 5.0 5.4 6.1 6.5 6.1 8.0 9.3 9.5 9.5 9.4 9.5 9.5 9.3 9.3 9.2 9.2 9.1 8.0 7.1 6.2 6.5 7.0 7.5 8.7 8.2 6.0 5.0 5.3
6.6 5.8 5.5 4.6 4.5 4.1 3.8 4.2 4.3 4.8 6.1 5.9 5.5 5.0 5.0 4.4 4.0 4.4 5.9 6.5 6.9 7.4 8.1 8.0 8.4 9.0 8.9 9.3 8.7 7.8 8.2 8.7 8.9 9.0 8.0 6.5 6.9 7.2 7.3 8.3 8.3 7.5 6.0
6.6 5.7 5.3 5.1 4.9 5.0 4.6 4.7 5.2 5.5 6.2 6.4 5.6 5.0 4.9 4.2 4.1 4.0 3.1 3.9 5.5 6.6 6.3 8.2 7.8 6.9 7.7 8.4 8.4 8.3 8.0 8.4 8.9 8.8 8.9 9.0 7.1 8.4 7.9 7.8 8.3 8.6 8.0
6.4 5.6 5.4 5.2 5.0 5.1 4.4 4.7 4.8 5.3 5.8 6.6 5.6 5.6 4.8 4.6 4.4 4.2 3.4 3.2 3.4 4.9 6.3 6.0 7.8 8.2 7.9 8.0 8.2 8.0 7.7 7.4 8.0 8.6 8.8 9.1 8.5 8.6 8.7 7.5 7.9 7.9 8.4
6.4 6.0 5.7 5.4 5.1 5.2 4.7 4.6 4.5 5.0 5.3 5.3 5.9 6.2 5.7 5.6 5.5 5.3 4.4 4.0 3.7 3.8 4.9 6.5 7.0 7.2 7.8 7.6 8.0 8.0 8.1 8.1 7.8 7.5 8.1 8.1 7.8 8.8 8.8 8.9 8.4 8.3 7.8
6.8 6.2 6.0 5.8 5.4 5.3 5.2 5.2 5.1 4.8 4.9 5.0 5.2 5.4 5.7 6.2 6.5 5.9 5.6 5.3 5.2 5.0 4.8 5.4 6.2 7.4 6.5 7.3 7.8 7.6 7.6 7.2 7.7 7.6 7.5 8.0 8.0 7.5 6.8 7.1 7.1 6.8 7.2
9.2 8.7 8.3 8.3 7.0 7.2 7.0 7.0 7.4 7.3 7.1 7.4 7.2 7.3 7.3 7.1 6.8 6.7 6.6 6.6 6.2 5.9 6.1 6.2 5.9 5.7 7.0 7.0 6.7 8.0 7.8 7.8 7.2 7.1 7.4 8.1 8.0 8.3 8.1 8.8 8.7 8.4 8.7
Wind_Speed
6 11 7 7 8 8 10 11 11 10 9 12 10 12 11 10 11 11 11 11 10 9 10 10 10 11 12 11 12 12 12 12 12 11 12 12 12 10 9 13 18 18 18
6 16 8 6 6 7 9 9 10 8 11 10 11 11 10 9 9 9 9 8 8 8 9 10 9 11 11 11 10 11 10 10 10 9 10 11 11 9 5 8 19 16 17
8 11 12 8 6 7 7 9 9 8 8 8 9 8 7 7 7 7 6 7 7 8 8 9 10 9 8 9 9 10 10 8 6 2 4 6 11 7 8 16 15 14 14
11 20 16 11 8 7 7 7 7 7 6 7 7 6 6 6 6 6 6 5 6 7 7 7 8 9 8 7 8 8 8 7 3 4 6 4 11 7 9 11 11 12 13
10 15 14 12 11 10 8 7 6 7 6 5 6 5 4 4 4 4 4 4 5 7 7 6 5 6 7 7 6 6 6 4 1 6 3 11 3 10 10 9 10 10 10
11 15 16 14 12 12 11 10 8 8 8 7 6 4 4 3 3 3 3 2 3 5 5 5 5 3 4 4 5 4 3 2 7 3 6 5 3 10 10 8 9 7 10
13 14 17 17 15 13 11 11 9 9 9 7 6 5 5 4 4 2 3 1 2 3 3 4 4 3 3 3 3 3 0 4 9 3 2 5 6 2 9 7 7 8 8
16 19 18 15 12 11 13 14 12 10 9 8 7 6 5 5 4 3 2 1 1 2 3 4 4 4 4 4 5 3 2 5 7 2 1 5 6 3 6 7 5 7 7
18 17 18 18 16 7 10 11 9 8 8 8 8 7 6 4 2 2 3 3 3 4 4 6 6 5 5 5 6 5 4 8 12 4 3 5 12 6 6 7 6 6 7
18 20 20 19 17 16 13 11 7 6 5 3 2 2 4 8 6 5 4 4 4 5 6 6 7 7 7 7 6 7 6 8 13 2 5 6 6 6 8 9 9 9 10
15 16 21 21 21 20 15 11 9 2 5 3 3 1 6 6 3 2 6 2 5 7 7 8 8 7 8 8 8 8 7 10 12 7 7 8 2 5 7 11 12 10 10
18 18 20 22 21 20 16 15 12 9 9 9 8 9 9 8 6 5 7 5 7 9 8 10 10 9 8 12 11 10 10 12 9 7 3 8 2 5 7 16 14 10 9
15 14 16 22 21 19 17 14 11 11 10 11 10 12 11 9 7 7 5 5 7 9 7 6 9 11 12 10 11 9 10 10 8 7 3 5 3 6 4 7 7 10 10
15 16 16 23 21 20 16 15 13 11 11 10 11 12 12 10 8 7 7 7 5 7 9 4 6 9 11 12 12 13 10 8 7 8 5 8 5 5 8 8 8 5 10
16 16 17 22 21 20 17 16 15 13 12 11 11 13 12 11 8 10 9 9 7 8 7 8 5 7 9 10 12 12 11 10 10 7 6 5 7 8 9 12 14 19 16
16 16 16 18 22 20 17 16 13 18 21 14 12 13 15 13 11 11 9 8 9 9 9 8 7 5 6 7 8 9 11 11 10 11 9 9 12 11 11 12 14 15 14
14 15 17 17 23 21 20 17 14 13 15 14 16 20 19 18 16 13 10 7 9 9 11 9 8 8 6 4 6 8 9 10 10 11 11 10 10 15 15 14 14 16 16
13 15 16 20 22 21 20 18 17 16 15 15 15 16 19 16 17 17 9 8 12 11 9 7 6 3 5 4 3 3 4 8 10 10 11 12 11 10 18 19 17 15 14
14 14 15 16 17 21 21 18 17 18 15 15 16 17 19 19 19 16 14 14 14 10 7 6 6 7 6 5 6 6 5 5 8 11 11 12 15 12 11 16 23 21 19
13 14 15 13 18 20 17 17 16 15 14 16 16 18 19 19 21 18 12 14 16 8 7 6 8 7 7 6 7 8 6 6 7 8 9 14 15 15 14 14 15 16 24
13 15 16 16 17 11 10 10 10 10 9 11 15 20 18 20 20 20 15 14 13 8 9 10 10 9 7 7 6 5 8 9 10 8 8 8 10 15 16 16 15 13 16
12 13 14 14 15 10 8 8 9 9 8 12 14 17 17 20 20 18 17 13 15 8 10 10 9 6 7 7 6 7 5 6 7 9 8 8 11 11 10 15 16 17 15
12 12 12 13 14 12 17 11 10 10 10 7 9 9 16 20 18 17 17 16 15 12 8 10 11 10 8 7 7 5 4 4 4 4 7 8 9 9 7 12 14 16 16
10 11 12 13 14 14 18 11 14 9 10 9 9 10 17 20 19 17 16 17 15 12 11 10 9 10 9 8 7 6 10 9 4 5 3 5 6 7 8 7 7 11 12
9 10 11 12 13 14 14 13 10 12 10 10 10 15 14 18 19 19 18 17 14 12 10 12 14 11 9 10 9 8 8 8 9 8 9 7 5 6 7 8 7 11 14
8 10 10 11 12 12 12 13 13 14 14 11 12 11 9 9 13 18 20 17 17 15 11 10 11 14 12 12 11 10 9 7 6 7 9 10 10 8 7 7 7 9 15
Wind_Direction
110 109 85 115 113 108 101 98 94 84 89 91 89 89 95 94 91 87 81 78 76 78 80 81 74 84 89 79 74 71 63 68 80 80 83 97 99 103 101 114 104 96 98
94 95 83 93 107 101 104 101 95 85 72 87 93 96 91 89 92 82 79 82 87 85 81 85 83 78 84 82 77 73 70 67 62 75 98 91 91 109 76 85 95 104 102
81 117 90 66 77 83 87 102 98 88 83 79 76 77 79 80 78 79 80 82 89 88 87 85 86 84 81 86 85 81 78 67 60 63 222 145 108 111 89 90 105 108 106
56 64 63 59 64 74 79 79 90 97 93 92 87 80 77 78 82 82 87 89 103 100 93 87 88 94 94 96 92 82 75 71 73 269 275 120 135 136 124 116 113 116 115
76 74 65 59 60 64 66 69 65 73 71 64 72 70 69 70 71 67 83 77 102 113 110 106 96 95 104 108 109 100 81 72 190 278 83 36 333 155 141 129 129 129 137
79 80 62 44 44 48 55 60 59 60 62 56 49 40 40 35 35 27 16 58 127 127 128 129 126 115 108 110 114 109 86 350 290 145 100 64 11 147 144 158 130 127 124
53 71 67 54 40 41 43 45 44 44 45 48 45 35 24 17 15 26 23 39 148 173 162 159 153 157 165 174 162 152 26 318 297 146 118 93 49 79 154 143 142 153 142
34 28 23 45 36 44 44 32 29 33 36 39 42 40 27 16 4 4 357 3 261 248 244 225 192 193 196 216 209 194 261 298 274 192 180 117 82 19 161 161 162 162 148
35 31 20 15 10 49 68 43 26 34 36 33 28 22 15 0 340 319 304 296 284 277 262 254 240 213 222 224 220 215 250 290 299 140 206 179 140 232 208 184 183 178 170
31 23 13 7 5 1 355 42 4 21 16 14 24 3 313 273 233 207 260 260 280 274 273 264 250 239 234 233 221 230 244 273 276 201 224 104 122 204 227 212 202 203 195
22 18 9 3 358 352 344 352 341 109 307 278 281 233 291 281 277 224 95 18 317 289 268 261 257 243 236 242 237 233 244 252 244 239 227 128 170 255 252 232 208 213 195
16 12 9 3 357 353 347 346 337 346 341 343 346 348 333 341 347 319 280 261 259 259 270 258 248 245 235 251 210 216 240 244 257 244 234 133 195 256 269 219 200 207 195
17 15 10 5 360 357 347 336 342 344 345 345 355 350 338 322 332 307 305 248 265 217 256 235 246 237 248 255 295 211 225 249 259 251 226 149 214 233 199 151 169 189 192
20 15 10 9 5 3 354 356 345 343 348 351 348 352 345 337 330 319 318 322 287 278 293 243 269 254 252 254 259 289 238 228 245 283 236 174 210 250 200 172 157 244 223
25 19 14 12 9 7 8 3 356 360 357 345 358 5 354 341 339 337 325 319 313 307 287 288 259 278 267 262 248 254 285 241 231 234 283 207 213 235 230 203 194 196 211
22 21 15 16 12 11 10 13 10 3 359 5 8 14 7 355 347 333 322 316 318 309 305 294 294 274 275 283 280 249 246 269 278 228 215 221 220 237 248 240 213 207 208
24 18 16 16 13 14 12 8 22 16 14 10 6 11 4 7 351 338 328 321 323 326 313 294 295 333 316 285 268 283 282 272 268 284 250 232 202 223 233 245 247 228 216
30 25 19 17 15 15 15 7 12 11 11 16 16 12 8 7 358 341 332 327 331 318 307 300 293 288 277 276 261 272 285 290 271 274 280 275 224 228 217 227 236 245 241
29 26 23 20 15 12 10 11 10 4 15 6 11 7 2 1 359 354 340 334 333 315 309 303 298 288 285 265 247 235 238 241 260 261 262 259 265 230 227 219 226 229 230
29 27 25 19 15 11 9 7 5 3 5 355 3 358 356 355 351 347 344 337 330 323 313 308 298 289 286 288 291 295 268 241 242 248 248 249 243 246 235 242 207 223 233
29 23 18 16 12 13 7 1 358 353 347 347 356 348 351 351 349 343 340 335 332 329 321 316 308 297 289 286 282 283 269 257 251 239 232 242 241 234 233 230 230 215 218
23 18 15 13 9 9 3 353 346 336 336 332 345 337 342 342 340 338 337 330 328 322 315 305 298 306 303 299 293 292 284 268 249 228 243 234 245 239 231 233 237 223 228
16 11 6 4 1 360 356 347 343 334 331 334 334 328 332 329 328 327 326 325 322 320 308 307 304 288 283 285 274 267 283 240 305 247 218 238 237 251 227 224 232 235 229
8 1 358 355 353 349 349 344 342 331 328 327 322 318 321 320 316 319 316 315 313 311 309 305 290 307 286 268 271 264 263 280 286 294 190 243 265 263 258 248 235 234 234
358 351 347 343 343 340 339 336 331 325 317 315 315 315 315 311 314 312 309 308 306 306 300 298 300 285 292 285 257 255 260 258 252 258 267 263 216 210 228 243 242 245 243
347 340 337 333 331 328 325 321 316 311 309 306 305 303 302 309 309 306 304 304 301 297 296 298 299 295 295 279 287 264 246 244 233 234 248 256 264 263 213 222 227 221 226